Aeroporto :







RITROVATECI SU...

 
LOGIN :

Iscrizione | Disclaimer

   EN    FR    IT 

 









Sommario :    VFR   VFR Marginale   IFR   IFR Intensivo   IFR Molto Intensivo
Visibilità : 
Base nubi : 
>= 8 km
>= 3000ft
5 / 8 km
1000 / 3000 ft
1500m / 5 km
500 / 1000 ft
800 / 1500m
200 / 500 ft
< 800m
< 200 ft
Simboli :   Temporali  Nebbia  Neve Forte  Precipitazioni Forti  Vento > 20 kt






- Altitudine del aeroporto : 60 ft
- Codice IATA : AUA


TNCA - Reina beatrix It.

ULTIMO METAR :
  • 261500Z 09017KT 060V120 9999 SCT023 31/24 Q1013 NOSIG

METARs OBSOLETI :
  • 261400Z 09015KT 9999 SCT022 31/25 Q1013 NOSIG
  • 261300Z 10016KT 9999 FEW020 30/24 Q1012 NOSIG

TAF TAF TNCA
Valido dal 26 a 06 ore il 27 a 06 ore UTC


260515Z 2606/2706 09016KT 9999 SCT020
TEMPO 2606/2618 5000 SHRA BKN014
FIR TNCF / America del Nord



MetMap, La meteo Aeronautica in un colpo d'occhio ! - Copyright ORBIFLY Dicembre 2007 - Disclaimer

ORBIFLY MET'MAP TEAM :

Programmazione e sviluppo : Alexandra Zaïnal
Concezione : Baudouin d'Aumeries
Aiuto per la programmazione : Marc-Olivier Méhu
Supporto tecnico e logistico : Manuel Goepfert
Aiuto per la traduzione : Arnaldo La Scala

Contatto : metmap@orbifly.com




FONTI E CREDITI :

   NOAA